Location: Unspecified
(0.0000°N, 0.0000°E)
Time: 14:03:30
(UTC+00:00)

N. Korean satellite - Pass Details

Date: 13 January 2017
Orbit: 461 x 520 km, 97.2° (Epoch: 22 March)

Event Time Altitude Azimuth Distance (km) Brightness Sun altitude
Rises 19:40:02 0° 204° (SSW) 2,490 10.9 -21.1°
Reaches altitude 10° 19:43:20 10° 239° (WSW) 1,606 10.3 -21.9°
Maximum altitude 19:44:30 11° 259° (WSW) 1,520 10.1 -22.2°
Drops below altitude 10° 19:45:39 10° 279° (W) 1,603 10.0 -22.4°
Sets 19:48:56 0° 314° (NW) 2,474 10.5 -23.2°
